Weather in Rechnoy

Russia / Kirov Oblast     58°17′22″N   49°48′49″E
temp.,
°C
wind,
m/s
gust,
m/s
humid.,
%
clouds,
%
prec.,
mm/h
press.,
hPa
HPBL,
m
13 may, thu
thu1300:00+15se22740 0.0 102618
03:00+14ese22770 0.0 102627
06:00+17ese23671 0.0 1026119
09:00+23se34475 0.0 1025637
12:00+26sse56345 0.0 10252169
15:00+26s4630100 0.0 10232182
18:00+22ssw384899 0.0 1023427
21:00+17sse376352 0.0 1022133
14 may, fri
fri1400:00+17sse4136291 0.0 1021344
03:00+17s4146983 0.1 1021432
06:00+16s3108071 0.8 1020339
09:00+22ssw475799 1.2 1020852
12:00+24sw4751100 0.0 10201653
15:00+24sw4647100 0.0 10201818
18:00+22sw256158 0.0 1019244
21:00+17ssw22815 0.0 101918
15 may, sat
sat1500:00+16s2285100 0.0 101926
03:00+15s2391100 0.6 101946
06:00+19sse258174 0.0 1019194
09:00+23s365587 0.0 1018660
12:00+26s4648100 0.0 10171145
15:00+27s5103754 0.0 10161364
18:00+24ssw5124690 0.0 1015879
21:00+20ssw5155833 0.0 1015526
16 may, sun
sun1600:00+18ssw415623 0.0 1015453
03:00+15s311745 0.0 1016220
06:00+19ssw4116360 0.0 1016332
09:00+23ssw51048100 0.0 1015769
12:00+26sw61042100 0.0 10141501
15:00+26sw51044100 0.0 10141807
18:00+24wsw3754100 0.0 1013741
21:00+16sw237939 3.3 101450
17 may, mon
mon1700:00+15ssw259016 0.8 101493
03:00+15wsw26940 0.8 1015113
06:00+17wsw38810 0.0 1016260
09:00+21w47580 0.0 10161101
12:00+23w57455 0.0 10171710
15:00+23wnw4545100 0.0 10171643
18:00+21wsw255898 0.0 1017228
21:00+16n237885 0.0 101848